| time (UTC) | temp F | wind direction | speed knots | gust knots | rain 1hr in | rain 24hr in | rain mn in | humidity % | barometer mb |
| 20260509183245 | 75 | 158 | 3.5 | 8.7 | 0.00 | 0.00 | 0.00 | 27 | 1012.5 |
| 20260509182244 | 74 | 290 | 4.3 | 9.6 | 0.00 | 0.00 | 0.00 | 24 | 1012.5 |
| 20260509181244 | 75 | 227 | 2.6 | 12.2 | 0.00 | 0.00 | 0.00 | 26 | 1012.4 |
| 20260509180245 | 74 | 299 | 2.6 | 7.8 | 0.00 | 0.00 | 0.00 | 26 | 1012.7 |
| 20260509175244 | 73 | 278 | 3.5 | 8.7 | 0.00 | 0.00 | 0.00 | 26 | 1012.7 |
| 20260509174244 | 74 | 240 | 2.6 | 7.0 | 0.00 | 0.00 | 0.00 | 24 | 1012.5 |
| 20260509173243 | 73 | 212 | 2.6 | 7.8 | 0.00 | 0.00 | 0.00 | 23 | 1012.7 |
| 20260509172245 | 74 | 173 | 2.6 | 9.6 | 0.00 | 0.00 | 0.00 | 24 | 1012.7 |
| 20260509171245 | 73 | 98 | 3.5 | 10.4 | 0.00 | 0.00 | 0.00 | 24 | 1012.7 |
| 20260509170244 | 73 | 300 | 2.6 | 8.7 | 0.00 | 0.00 | 0.00 | 25 | 1012.5 |
| 20260509165244 | 73 | 204 | 2.6 | 6.1 | 0.00 | 0.00 | 0.00 | 22 | 1012.5 |
| 20260509164244 | 73 | 202 | 0.9 | 5.2 | 0.00 | 0.00 | 0.00 | 21 | 1012.5 |
| 20260509163245 | 72 | 277 | 4.3 | 8.7 | 0.00 | 0.00 | 0.00 | 24 | 1012.5 |
| 20260509162717 | 72 | 294 | 4.3 | 7.0 | 0.00 | 0.00 | 0.00 | 23 | 1012.4 |
| 20260509161244 | 71 | 284 | 5.2 | 9.6 | 0.00 | 0.00 | 0.00 | 27 | 1012.3 |
| 20260509160245 | 70 | 284 | 4.3 | 12.2 | 0.00 | 0.00 | 0.00 | 28 | 1012.4 |
| 20260509155243 | 70 | 286 | 3.5 | 8.7 | 0.00 | 0.00 | 0.00 | 28 | 1012.3 |
| 20260509154244 | 69 | 251 | 5.2 | 11.3 | 0.00 | 0.00 | 0.00 | 31 | 1012.3 |
| 20260509153244 | 69 | 275 | 5.2 | 11.3 | 0.00 | 0.00 | 0.00 | 35 | 1012.5 |
| 20260509152239 | 68 | 295 | 2.6 | 7.0 | 0.00 | 0.00 | 0.00 | 37 | 1012.5 |
| 20260509151713 | 68 | 278 | 0.9 | 3.5 | 0.00 | 0.00 | 0.00 | 31 | 1012.5 |
| 20260509150236 | 67 | 259 | 0.9 | 2.6 | 0.00 | 0.00 | 0.00 | 35 | 1012.7 |
| 20260509145237 | 67 | 200 | 0.0 | 2.6 | 0.00 | 0.00 | 0.00 | 36 | 1012.7 |
| 20260509144236 | 65 | 111 | 0.0 | 2.6 | 0.00 | 0.00 | 0.00 | 29 | 1012.7 |
| 20260509143237 | 63 | 187 | 0.0 | 1.7 | 0.00 | 0.00 | 0.00 | 38 | 1012.8 |
| 20260509142716 | 60 | 162 | 0.0 | 1.7 | 0.00 | 0.00 | 0.00 | 46 | 1012.8 |
| 20260509141235 | 57 | 199 | 0.0 | 0.9 | 0.00 | 0.00 | 0.00 | 62 | 1012.9 |
| 20260509140237 | 56 | 198 | 0.0 | 1.7 | 0.00 | 0.00 | 0.00 | 61 | 1012.9 |
| 20260509135234 | 56 | 170 | 0.0 | 0.0 | 0.00 | 0.00 | 0.00 | 59 | 1012.8 |
| 20260509134235 | 56 | 170 | 0.0 | 0.9 | 0.00 | 0.00 | 0.00 | 55 | 1012.7 |
| 20260509134157 | 55 | 170 | 0.0 | 0.9 | 0.00 | 0.00 | 0.00 | 59 | 1012.8 |
| 20260509132230 | 58 | 170 | 0.0 | 0.0 | 0.00 | 0.00 | 0.00 | 47 | 1012.5 |
| 20260509131700 | 57 | 171 | 0.0 | 1.7 | 0.00 | 0.00 | 0.00 | 46 | 1012.4 |
| 20260509130230 | 58 | 126 | 0.0 | 1.7 | 0.00 | 0.00 | 0.00 | 46 | 1012.3 |
| 20260509125230 | 59 | 129 | 0.9 | 2.6 | 0.00 | 0.00 | 0.00 | 43 | 1012.2 |
| 20260509124710 | 58 | 153 | 1.7 | 4.3 | 0.00 | 0.00 | 0.00 | 43 | 1011.8 |
| 20260509123708 | 59 | 179 | 2.6 | 5.2 | 0.00 | 0.00 | 0.00 | 42 | 1011.8 |
| 20260509122224 | 59 | 74 | 3.5 | 6.1 | 0.00 | 0.00 | 0.00 | 42 | 1011.6 |
| 20260509121223 | 60 | 90 | 4.3 | 8.7 | 0.00 | 0.00 | 0.00 | 40 | 1011.4 |
| 20260509120224 | 59 | 93 | 3.5 | 7.0 | 0.00 | 0.00 | 0.00 | 41 | 1011.4 |
| 20260509115225 | 57 | 107 | 3.5 | 6.1 | 0.00 | 0.00 | 0.00 | 45 | 1011.3 |
| 20260509114223 | 54 | 92 | 1.7 | 4.3 | 0.00 | 0.00 | 0.00 | 51 | 1011.4 |
| 20260509113225 | 54 | 84 | 3.5 | 8.7 | 0.00 | 0.00 | 0.00 | 52 | 1011.4 |
| 20260509112705 | 53 | 93 | 4.3 | 7.0 | 0.00 | 0.00 | 0.00 | 54 | 1011.3 |
| 20260509111222 | 53 | 115 | 5.2 | 8.7 | 0.00 | 0.00 | 0.00 | 55 | 1011.3 |
| 20260509110224 | 52 | 105 | 4.3 | 7.0 | 0.00 | 0.00 | 0.00 | 58 | 1011.1 |
| 20260509105219 | 51 | 69 | 1.7 | 6.1 | 0.00 | 0.00 | 0.00 | 62 | 1011.1 |
| 20260509104218 | 49 | 103 | 0.9 | 3.5 | 0.00 | 0.00 | 0.00 | 64 | 1011.0 |
| 20260509103216 | 49 | 98 | 0.9 | 1.7 | 0.00 | 0.00 | 0.00 | 70 | 1010.9 |
| 20260509102217 | 48 | 86 | 2.6 | 7.0 | 0.00 | 0.00 | 0.00 | 74 | 1010.9 |
| 20260509101218 | 46 | 134 | 0.0 | 1.7 | 0.00 | 0.00 | 0.00 | 84 | 1010.9 |
| 20260509100217 | 46 | 135 | 0.0 | 0.9 | 0.00 | 0.00 | 0.00 | 82 | 1010.9 |
| 20260509095656 | 47 | 185 | 0.9 | 1.7 | 0.00 | 0.00 | 0.00 | 80 | 1010.9 |
| 20260509094217 | 47 | 172 | 0.9 | 1.7 | 0.00 | 0.00 | 0.00 | 80 | 1011.1 |
| 20260509093219 | 47 | 163 | 0.9 | 1.7 | 0.00 | 0.00 | 0.00 | 83 | 1010.9 |
| 20260509092652 | 46 | 336 | 0.0 | 1.7 | 0.00 | 0.00 | 0.00 | 83 | 1010.9 |
| 20260509091211 | 46 | 336 | 0.9 | 1.7 | 0.00 | 0.00 | 0.00 | 82 | 1010.9 |
| 20260509090652 | 47 | 341 | 0.0 | 0.9 | 0.00 | 0.00 | 0.00 | 80 | 1010.7 |
| 20260509085658 | 48 | 327 | 0.0 | 1.7 | 0.00 | 0.00 | 0.00 | 79 | 1010.7 |
| 20260509084211 | 48 | 340 | 1.7 | 3.5 | 0.00 | 0.00 | 0.00 | 79 | 1010.6 |
| 20260509083213 | 49 | 196 | 0.0 | 1.7 | 0.00 | 0.00 | 0.00 | 77 | 1010.6 |
| 20260509082211 | 50 | 193 | 0.0 | 1.7 | 0.00 | 0.00 | 0.00 | 76 | 1010.6 |
| 20260509081211 | 50 | 72 | 0.9 | 2.6 | 0.00 | 0.00 | 0.00 | 74 | 1010.7 |
| 20260509080646 | 50 | 72 | 0.0 | 1.7 | 0.00 | 0.00 | 0.00 | 76 | 1010.8 |
| 20260509075206 | 50 | 72 | 0.0 | 1.7 | 0.00 | 0.00 | 0.00 | 76 | 1010.9 |
| 20260509074205 | 51 | 72 | 0.9 | 1.7 | 0.00 | 0.00 | 0.00 | 75 | 1010.9 |
| 20260509073206 | 50 | 72 | 0.9 | 2.6 | 0.00 | 0.00 | 0.00 | 78 | 1011.3 |
| 20260509072205 | 50 | 77 | 1.7 | 4.3 | 0.00 | 0.00 | 0.00 | 78 | 1011.4 |
| 20260509071204 | 50 | 83 | 0.9 | 3.5 | 0.00 | 0.00 | 0.00 | 79 | 1011.5 |
| 20260509070205 | 51 | 195 | 0.0 | 0.9 | 0.00 | 0.00 | 0.00 | 80 | 1011.5 |
| 20260509065202 | 50 | 195 | 0.0 | 0.9 | 0.00 | 0.00 | 0.00 | 80 | 1011.5 |
| 20260509064203 | 50 | 195 | 0.0 | 0.9 | 0.00 | 0.00 | 0.00 | 79 | 1011.6 |
| 20260509063203 | 51 | 195 | 0.0 | 0.9 | 0.00 | 0.00 | 0.00 | 78 | 1011.4 |
| 20260509062157 | 51 | 195 | 0.9 | 2.6 | 0.00 | 0.00 | 0.00 | 78 | 1011.5 |
| 20260509061156 | 52 | 191 | 0.9 | 3.5 | 0.00 | 0.00 | 0.00 | 77 | 1011.6 |
| 20260509060156 | 51 | 31 | 0.9 | 1.7 | 0.00 | 0.00 | 0.00 | 77 | 1011.7 |
| 20260509055156 | 51 | 31 | 0.9 | 1.7 | 0.00 | 0.00 | 0.00 | 78 | 1011.7 |
| 20260509054636 | 52 | 30 | 0.9 | 2.6 | 0.00 | 0.00 | 0.00 | 77 | 1011.8 |
| 20260509053642 | 53 | 77 | 0.0 | 1.7 | 0.00 | 0.00 | 0.00 | 75 | 1012.0 |
| 20260509052156 | 54 | 171 | 0.9 | 1.7 | 0.00 | 0.00 | 0.00 | 75 | 1012.1 |
| 20260509051156 | 53 | 176 | 0.9 | 2.6 | 0.00 | 0.00 | 0.00 | 73 | 1012.2 |
| 20260509050156 | 54 | 75 | 0.9 | 4.3 | 0.00 | 0.00 | 0.00 | 72 | 1012.3 |
| 20260509045633 | 54 | 67 | 2.6 | 4.3 | 0.00 | 0.00 | 0.00 | 74 | 1012.4 |
| 20260509044156 | 54 | 91 | 0.0 | 2.6 | 0.00 | 0.00 | 0.00 | 71 | 1012.5 |
| 20260509043156 | 55 | 92 | 0.0 | 0.9 | 0.00 | 0.00 | 0.00 | 69 | 1012.8 |
| 20260509042156 | 55 | 92 | 0.0 | 0.9 | 0.00 | 0.00 | 0.00 | 69 | 1012.9 |
| 20260509041155 | 56 | 92 | 0.0 | 0.9 | 0.00 | 0.00 | 0.00 | 67 | 1012.9 |
| 20260509040150 | 57 | 92 | 0.0 | 0.9 | 0.00 | 0.00 | 0.00 | 65 | 1013.1 |
| 20260509035634 | 57 | 92 | 0.0 | 0.9 | 0.00 | 0.00 | 0.00 | 64 | 1013.1 |
| 20260509034149 | 58 | 92 | 0.0 | 0.9 | 0.00 | 0.00 | 0.00 | 63 | 1013.1 |
| 20260509033150 | 58 | 91 | 0.0 | 0.9 | 0.00 | 0.00 | 0.00 | 62 | 1013.1 |
| 20260509032148 | 58 | 91 | 0.0 | 1.7 | 0.00 | 0.00 | 0.00 | 63 | 1013.1 |
| 20260509031150 | 58 | 92 | 0.0 | 1.7 | 0.00 | 0.00 | 0.00 | 60 | 1013.0 |
| 20260509030148 | 59 | 85 | 0.9 | 2.6 | 0.00 | 0.00 | 0.00 | 58 | 1013.0 |
| 20260509025148 | 59 | 91 | 0.9 | 3.5 | 0.00 | 0.00 | 0.00 | 60 | 1012.9 |
| 20260509024623 | 60 | 280 | 0.0 | 0.9 | 0.00 | 0.00 | 0.00 | 57 | 1012.8 |
| 20260509023632 | 60 | 279 | 0.0 | 0.9 | 0.00 | 0.00 | 0.00 | 55 | 1012.7 |
| 20260509022142 | 62 | 280 | 0.0 | 0.9 | 0.00 | 0.00 | 0.00 | 51 | 1012.7 |
| 20260509021144 | 63 | 279 | 0.0 | 0.9 | 0.00 | 0.00 | 0.00 | 48 | 1012.5 |
| 20260509020142 | 63 | 279 | 0.0 | 1.7 | 0.00 | 0.00 | 0.00 | 48 | 1012.5 |
| 20260509015142 | 64 | 272 | 0.0 | 3.5 | 0.00 | 0.00 | 0.00 | 47 | 1012.3 |
| 20260509014143 | 65 | 274 | 0.0 | 2.6 | 0.00 | 0.00 | 0.00 | 47 | 1012.3 |
| 20260509013141 | 65 | 256 | 0.0 | 1.7 | 0.00 | 0.00 | 0.00 | 46 | 1012.2 |
| 20260509012140 | 66 | 255 | 1.7 | 3.5 | 0.00 | 0.00 | 0.00 | 45 | 1012.2 |
| 20260509011630 | 66 | 264 | 2.6 | 5.2 | 0.00 | 0.00 | 0.00 | 45 | 1012.2 |
| 20260509010135 | 67 | 286 | 1.7 | 4.3 | 0.00 | 0.00 | 0.00 | 43 | 1012.1 |
| 20260509005135 | 68 | 278 | 2.6 | 5.2 | 0.00 | 0.00 | 0.00 | 43 | 1012.1 |
| 20260509004135 | 68 | 260 | 2.6 | 6.1 | 0.00 | 0.00 | 0.00 | 42 | 1012.2 |
| 20260509003136 | 69 | 250 | 1.7 | 5.2 | 0.00 | 0.00 | 0.00 | 42 | 1012.2 |
| 20260509002134 | 69 | 210 | 1.7 | 7.0 | 0.00 | 0.00 | 0.00 | 41 | 1012.1 |
| 20260509001614 | 69 | 295 | 2.6 | 4.3 | 0.00 | 0.00 | 0.00 | 40 | 1012.1 |
| 20260509000134 | 69 | 314 | 3.5 | 6.1 | 0.00 | 0.00 | 0.00 | 41 | 1012.2 |
| 20260508235623 | 69 | 300 | 3.5 | 7.8 | 0.00 | 0.00 | 0.00 | 42 | 1012.2 |
| 20260508234618 | 69 | 295 | 3.5 | 9.6 | 0.00 | 0.00 | 0.00 | 41 | 1012.2 |
| 20260508233613 | 70 | 278 | 1.7 | 5.2 | 0.00 | 0.00 | 0.00 | 41 | 1012.2 |
| 20260508232129 | 70 | 252 | 3.5 | 7.8 | 0.00 | 0.00 | 0.00 | 41 | 1012.3 |
| 20260508231615 | 70 | 294 | 1.7 | 8.7 | 0.00 | 0.00 | 0.00 | 42 | 1012.2 |
| 20260508230617 | 69 | 326 | 3.5 | 7.0 | 0.00 | 0.00 | 0.00 | 42 | 1012.3 |
| 20260508225129 | 69 | 330 | 4.3 | 7.8 | 0.00 | 0.00 | 0.00 | 42 | 1012.3 |
| 20260508224608 | 69 | 13 | 2.6 | 7.8 | 0.00 | 0.00 | 0.00 | 42 | 1012.3 |
| 20260508223129 | 69 | 301 | 3.5 | 7.8 | 0.00 | 0.00 | 0.00 | 41 | 1012.4 |
| 20260508222129 | 69 | 300 | 3.5 | 7.8 | 0.00 | 0.00 | 0.00 | 41 | 1012.4 |
| 20260508221129 | 69 | 323 | 2.6 | 7.8 | 0.00 | 0.00 | 0.00 | 40 | 1012.7 |
| 20260508220123 | 68 | 74 | 2.6 | 7.0 | 0.00 | 0.00 | 0.00 | 44 | 1012.8 |
| 20260508215121 | 69 | 67 | 1.7 | 4.3 | 0.00 | 0.00 | 0.00 | 41 | 1012.9 |
| 20260508214123 | 68 | 321 | 3.5 | 7.0 | 0.00 | 0.00 | 0.00 | 39 | 1013.0 |
| 20260508213123 | 68 | 340 | 5.2 | 15.6 | 0.00 | 0.00 | 0.00 | 43 | 1013.1 |
| 20260508212121 | 67 | 347 | 2.6 | 7.0 | 0.00 | 0.00 | 0.00 | 43 | 1013.0 |
| 20260508211123 | 68 | 26 | 1.7 | 7.0 | 0.00 | 0.00 | 0.00 | 42 | 1013.2 |
| 20260508210122 | 67 | 354 | 2.6 | 8.7 | 0.00 | 0.00 | 0.00 | 43 | 1013.4 |
| 20260508205122 | 67 | 272 | 3.5 | 8.7 | 0.00 | 0.00 | 0.00 | 43 | 1013.5 |
| 20260508204123 | 66 | 311 | 5.2 | 8.7 | 0.00 | 0.00 | 0.00 | 43 | 1013.6 |
| 20260508203117 | 66 | 70 | 4.3 | 8.7 | 0.00 | 0.00 | 0.00 | 44 | 1013.7 |
| 20260508202117 | 66 | 288 | 4.3 | 8.7 | 0.00 | 0.00 | 0.00 | 47 | 1013.7 |
| 20260508201116 | 66 | 324 | 4.3 | 9.6 | 0.00 | 0.00 | 0.00 | 46 | 1013.9 |
| 20260508200116 | 65 | 304 | 3.5 | 8.7 | 0.00 | 0.00 | 0.00 | 50 | 1014.1 |
| 20260508195115 | 65 | 259 | 4.3 | 9.6 | 0.00 | 0.00 | 0.00 | 48 | 1014.2 |
| 20260508194117 | 65 | 56 | 3.5 | 8.7 | 0.00 | 0.00 | 0.00 | 48 | 1014.3 |
| 20260508193115 | 64 | 330 | 4.3 | 9.6 | 0.00 | 0.00 | 0.00 | 51 | 1014.3 |
| 20260508192555 | 64 | 326 | 6.1 | 10.4 | 0.00 | 0.00 | 0.00 | 48 | 1014.4 |
| 20260508191117 | 64 | 287 | 4.3 | 9.6 | 0.00 | 0.00 | 0.00 | 49 | 1014.6 |
| 20260508190601 | 64 | 275 | 4.3 | 8.7 | 0.00 | 0.00 | 0.00 | 53 | 1014.5 |
| 20260508185117 | 63 | 271 | 1.7 | 5.2 | 0.00 | 0.00 | 0.00 | 50 | 1014.8 |